| time (UTC) | temp C | wind direction | speed KPH | gust KPH | rain 1hr cm | rain 24hr cm | rain mn cm | humidity % | barometer mb |
| 20260831075839 | 12 | 353 | 1.6 | 16.1 | 0.00 | 0.03 | 0.00 | 51 | 1012.2 |
| 20260831074832 | 12 | 355 | 1.6 | 16.1 | 0.00 | 0.03 | 0.00 | 50 | 1012.2 |
| 20260831073807 | 12 | 354 | 3.2 | 16.1 | 0.00 | 0.03 | 0.00 | 51 | 1012.1 |
| 20260831072802 | 11 | 0 | 3.2 | 12.9 | 0.00 | 0.03 | 0.00 | 54 | 1012.0 |
| 20260831071801 | 10 | 14 | 1.6 | 12.9 | 0.00 | 0.03 | 0.00 | 58 | 1011.9 |
| 20260831070754 | 9 | 35 | 0.0 | 6.4 | 0.00 | 0.03 | 0.00 | 63 | 1011.9 |
| 20260831065756 | 9 | 41 | 0.0 | 1.6 | 0.00 | 0.03 | 0.00 | 65 | 1012.0 |
| 20260831064814 | 9 | 37 | 0.0 | 1.6 | 0.00 | 0.03 | 0.00 | 67 | 1011.9 |
| 20260831063820 | 9 | 37 | 0.0 | 0.0 | 0.00 | 0.03 | 0.00 | 67 | 1011.9 |
| 20260831062745 | 8 | 37 | 0.0 | 1.6 | 0.00 | 0.03 | 0.00 | 67 | 1011.8 |
| 20260831060542 | 8 | 36 | 0.0 | 4.8 | 0.00 | 0.03 | 0.00 | 67 | 1011.8 |
| 20260831055520 | 8 | 38 | 0.0 | 0.0 | 0.00 | 0.03 | 0.03 | 67 | 1011.6 |
| 20260831054508 | 9 | 38 | 0.0 | 0.0 | 0.00 | 0.03 | 0.03 | 66 | 1011.6 |
| 20260831053434 | 9 | 34 | 0.0 | 0.0 | 0.00 | 0.03 | 0.03 | 66 | 1011.5 |
| 20260831052414 | 10 | 32 | 0.0 | 0.0 | 0.00 | 0.03 | 0.03 | 64 | 1011.6 |
| 20260831051430 | 10 | 34 | 0.0 | 0.0 | 0.00 | 0.03 | 0.03 | 68 | 1011.3 |
| 20260831050451 | 10 | 32 | 0.0 | 0.0 | 0.00 | 0.03 | 0.03 | 66 | 1011.3 |
| 20260831045430 | 10 | 30 | 0.0 | 0.0 | 0.00 | 0.03 | 0.03 | 64 | 1011.3 |
| 20260831044414 | 10 | 30 | 0.0 | 0.0 | 0.00 | 0.03 | 0.03 | 65 | 1011.2 |
| 20260831040030 | 10 | 24 | 0.0 | 0.0 | 0.00 | 0.03 | 0.03 | 65 | 1010.7 |
| 20260831035055 | 10 | 28 | 0.0 | 0.0 | 0.00 | 0.03 | 0.03 | 66 | 1010.6 |
| 20260831034041 | 11 | 18 | 0.0 | 0.0 | 0.00 | 0.03 | 0.03 | 63 | 1010.5 |
| 20260831031938 | 12 | 357 | 0.0 | 0.0 | 0.00 | 0.03 | 0.03 | 61 | 1010.3 |
| 20260831030913 | 12 | 352 | 0.0 | 0.0 | 0.00 | 0.03 | 0.03 | 55 | 1010.2 |
| 20260831025933 | 13 | 346 | 0.0 | 0.0 | 0.00 | 0.03 | 0.03 | 53 | 1010.1 |
| 20260831024905 | 13 | 344 | 0.0 | 0.0 | 0.00 | 0.03 | 0.03 | 49 | 1010.0 |
| 20260831023858 | 14 | 344 | 0.0 | 0.0 | 0.00 | 0.03 | 0.03 | 48 | 1009.8 |
| 20260831022916 | 15 | 342 | 0.0 | 0.0 | 0.00 | 0.03 | 0.03 | 46 | 1009.6 |
| 20260831015739 | 16 | 338 | 0.0 | 3.2 | 0.00 | 0.03 | 0.03 | 43 | 1009.3 |
| 20260831014756 | 16 | 337 | 0.0 | 4.8 | 0.00 | 0.03 | 0.03 | 42 | 1009.1 |
| 20260831012705 | 17 | 336 | 0.0 | 3.2 | 0.00 | 0.05 | 0.03 | 42 | 1008.9 |
| 20260831010531 | 18 | 337 | 1.6 | 4.8 | 0.00 | 0.13 | 0.03 | 39 | 1008.8 |
| 20260831005532 | 18 | 337 | 1.6 | 14.5 | 0.00 | 0.13 | 0.03 | 38 | 1008.8 |
| 20260831004542 | 18 | 337 | 1.6 | 14.5 | 0.00 | 0.13 | 0.03 | 36 | 1008.8 |
| 20260831003526 | 18 | 337 | 1.6 | 9.7 | 0.00 | 0.13 | 0.03 | 37 | 1008.6 |
| 20260831002517 | 18 | 337 | 1.6 | 14.5 | 0.00 | 0.13 | 0.03 | 36 | 1008.6 |
| 20260831001537 | 18 | 337 | 0.0 | 14.5 | 0.00 | 0.13 | 0.03 | 40 | 1008.6 |
| 20260831000527 | 17 | 336 | 1.6 | 12.9 | 0.00 | 0.13 | 0.03 | 38 | 1008.7 |
| 20260830235543 | 18 | 336 | 1.6 | 6.4 | 0.00 | 0.13 | 0.03 | 41 | 1008.5 |
| 20260830234539 | 18 | 336 | 0.0 | 6.4 | 0.00 | 0.13 | 0.03 | 40 | 1008.6 |
| 20260830233513 | 18 | 337 | 1.6 | 9.7 | 0.00 | 0.13 | 0.03 | 36 | 1008.6 |
| 20260830232520 | 18 | 338 | 1.6 | 9.7 | 0.00 | 0.13 | 0.03 | 41 | 1008.7 |
| 20260830230432 | 18 | 337 | 1.6 | 9.7 | 0.00 | 0.13 | 0.03 | 37 | 1008.6 |
| 20260830224247 | 20 | 338 | 1.6 | 6.4 | 0.00 | 0.13 | 0.03 | 32 | 1008.5 |
| 20260830223308 | 21 | 339 | 1.6 | 16.1 | 0.00 | 0.13 | 0.03 | 32 | 1008.5 |
| 20260830222254 | 21 | 349 | 3.2 | 17.7 | 0.00 | 0.13 | 0.03 | 32 | 1008.6 |
| 20260830221226 | 21 | 351 | 3.2 | 17.7 | 0.00 | 0.13 | 0.03 | 32 | 1008.5 |
| 20260830215046 | 21 | 338 | 3.2 | 17.7 | 0.00 | 0.13 | 0.03 | 31 | 1008.5 |
| 20260830214034 | 20 | 349 | 4.8 | 17.7 | 0.00 | 0.13 | 0.03 | 32 | 1008.6 |
| 20260830213038 | 20 | 337 | 1.6 | 9.7 | 0.00 | 0.13 | 0.03 | 36 | 1008.6 |
| 20260830212033 | 20 | 337 | 1.6 | 6.4 | 0.00 | 0.13 | 0.03 | 38 | 1008.6 |
| 20260830211038 | 20 | 336 | 1.6 | 12.9 | 0.00 | 0.13 | 0.03 | 36 | 1008.7 |
| 20260830210016 | 20 | 336 | 3.2 | 12.9 | 0.00 | 0.13 | 0.03 | 39 | 1008.6 |
| 20260830205007 | 19 | 336 | 1.6 | 12.9 | 0.00 | 0.13 | 0.03 | 41 | 1008.6 |
| 20260830203950 | 17 | 336 | 1.6 | 12.9 | 0.00 | 0.13 | 0.03 | 47 | 1008.6 |
| 20260830203000 | 17 | 336 | 1.6 | 12.9 | 0.00 | 0.13 | 0.03 | 52 | 1008.7 |
| 20260830201927 | 17 | 336 | 1.6 | 9.7 | 0.00 | 0.13 | 0.03 | 48 | 1008.6 |
| 20260830200921 | 18 | 336 | 1.6 | 9.7 | 0.00 | 0.13 | 0.03 | 60 | 1008.5 |
| 20260830195923 | 18 | 337 | 1.6 | 11.3 | 0.00 | 0.13 | 0.03 | 53 | 1008.5 |
| 20260830194858 | 18 | 336 | 1.6 | 11.3 | 0.00 | 0.13 | 0.03 | 60 | 1008.4 |
| 20260830193921 | 17 | 336 | 0.0 | 4.8 | 0.00 | 0.13 | 0.03 | 63 | 1008.3 |
| 20260830192910 | 17 | 336 | 0.0 | 3.2 | 0.00 | 0.13 | 0.03 | 63 | 1008.4 |
| 20260830191922 | 17 | 336 | 0.0 | 6.4 | 0.00 | 0.13 | 0.03 | 65 | 1008.6 |
| 20260830190918 | 17 | 340 | 1.6 | 6.4 | 0.00 | 0.13 | 0.03 | 63 | 1008.6 |
| 20260830182554 | 15 | 336 | 0.0 | 4.8 | 0.00 | 0.13 | 0.03 | 73 | 1008.6 |
| 20260830181603 | 15 | 337 | 0.0 | 4.8 | 0.00 | 0.13 | 0.03 | 75 | 1008.5 |
| 20260830180540 | 15 | 336 | 0.0 | 3.2 | 0.00 | 0.13 | 0.03 | 79 | 1008.6 |
| 20260830175511 | 14 | 337 | 0.0 | 1.6 | 0.00 | 0.13 | 0.03 | 80 | 1008.8 |
| 20260830174517 | 14 | 338 | 0.0 | 6.4 | 0.00 | 0.13 | 0.03 | 81 | 1009.0 |
| 20260830173445 | 13 | 338 | 0.0 | 6.4 | 0.00 | 0.13 | 0.03 | 82 | 1009.0 |
| 20260830172436 | 13 | 338 | 0.0 | 3.2 | 0.00 | 0.13 | 0.03 | 85 | 1009.2 |
| 20260830171418 | 13 | 343 | 0.0 | 0.0 | 0.00 | 0.13 | 0.03 | 88 | 1009.1 |
| 20260830170435 | 13 | 346 | 0.0 | 0.0 | 0.00 | 0.13 | 0.03 | 89 | 1009.2 |
| 20260830165408 | 13 | 347 | 0.0 | 0.0 | 0.00 | 0.13 | 0.03 | 89 | 1008.5 |
| 20260830164401 | 13 | 345 | 0.0 | 0.0 | 0.00 | 0.13 | 0.03 | 89 | 1009.2 |
| 20260830163331 | 13 | 345 | 0.0 | 0.0 | 0.00 | 0.13 | 0.03 | 90 | 1008.9 |
| 20260830162319 | 12 | 344 | 0.0 | 0.0 | 0.00 | 0.13 | 0.03 | 89 | 1008.7 |
| 20260830161320 | 12 | 344 | 0.0 | 0.0 | 0.00 | 0.13 | 0.03 | 89 | 1009.0 |
| 20260830160253 | 12 | 342 | 0.0 | 0.0 | 0.00 | 0.13 | 0.03 | 90 | 1008.7 |
| 20260830155309 | 12 | 343 | 0.0 | 0.0 | 0.00 | 0.13 | 0.03 | 90 | 1008.6 |
| 20260830154330 | 12 | 344 | 0.0 | 0.0 | 0.00 | 0.13 | 0.03 | 90 | 1008.3 |
| 20260830153312 | 12 | 347 | 0.0 | 0.0 | 0.00 | 0.13 | 0.03 | 90 | 1008.2 |
| 20260830152316 | 12 | 347 | 0.0 | 0.0 | 0.00 | 0.13 | 0.03 | 90 | 1008.3 |
| 20260830151243 | 12 | 349 | 0.0 | 0.0 | 0.00 | 0.13 | 0.03 | 90 | 1007.8 |
| 20260830150226 | 12 | 353 | 0.0 | 0.0 | 0.00 | 0.13 | 0.03 | 90 | 1007.7 |
| 20260830145201 | 12 | 353 | 0.0 | 0.0 | 0.00 | 0.13 | 0.03 | 90 | 1007.9 |
| 20260830144138 | 11 | 353 | 0.0 | 3.2 | 0.00 | 0.13 | 0.03 | 90 | 1008.1 |
| 20260830143137 | 11 | 354 | 0.0 | 0.0 | 0.00 | 0.13 | 0.03 | 90 | 1007.8 |
| 20260830142201 | 11 | 353 | 0.0 | 4.8 | 0.00 | 0.13 | 0.03 | 90 | 1007.5 |
| 20260830141136 | 11 | 354 | 0.0 | 4.8 | 0.00 | 0.13 | 0.03 | 90 | 1007.7 |
| 20260830140106 | 11 | 356 | 0.0 | 0.0 | 0.00 | 0.13 | 0.03 | 90 | 1007.8 |
| 20260830135120 | 11 | 355 | 0.0 | 1.6 | 0.00 | 0.13 | 0.03 | 90 | 1008.1 |
| 20260830134132 | 12 | 353 | 0.0 | 1.6 | 0.00 | 0.13 | 0.03 | 90 | 1008.4 |
| 20260830133156 | 12 | 352 | 0.0 | 0.0 | 0.00 | 0.13 | 0.03 | 90 | 1008.4 |
| 20260830132138 | 12 | 353 | 0.0 | 1.6 | 0.00 | 0.13 | 0.03 | 90 | 1009.0 |
| 20260830131131 | 12 | 353 | 0.0 | 0.0 | 0.00 | 0.13 | 0.03 | 90 | 1008.7 |
| 20260830130131 | 12 | 353 | 0.0 | 0.0 | 0.00 | 0.13 | 0.03 | 90 | 1008.8 |
| 20260830125132 | 12 | 353 | 0.0 | 1.6 | 0.00 | 0.13 | 0.03 | 90 | 1009.1 |
| 20260830124156 | 12 | 353 | 0.0 | 0.0 | 0.00 | 0.13 | 0.03 | 90 | 1008.8 |
| 20260830123148 | 12 | 353 | 0.0 | 0.0 | 0.00 | 0.13 | 0.03 | 90 | 1008.7 |
| 20260830122156 | 12 | 353 | 0.0 | 11.3 | 0.00 | 0.13 | 0.03 | 90 | 1008.8 |
| 20260830121122 | 12 | 353 | 0.0 | 11.3 | 0.00 | 0.13 | 0.03 | 90 | 1008.6 |
| 20260830120052 | 12 | 353 | 0.0 | 0.0 | 0.00 | 0.13 | 0.03 | 90 | 1008.5 |
| 20260830115105 | 12 | 0 | 0.0 | 0.0 | 0.00 | 0.13 | 0.03 | 90 | 1008.6 |
| 20260830114050 | 12 | 3 | 0.0 | 0.0 | 0.00 | 0.13 | 0.03 | 90 | 1008.3 |
| 20260830111909 | 12 | 358 | 0.0 | 0.0 | 0.00 | 0.13 | 0.03 | 90 | 1007.7 |
| 20260830110847 | 12 | 357 | 0.0 | 0.0 | 0.00 | 0.13 | 0.03 | 90 | 1007.7 |
| 20260830105821 | 12 | 358 | 0.0 | 0.0 | 0.00 | 0.13 | 0.03 | 90 | 1008.0 |
| 20260830104830 | 12 | 356 | 0.0 | 0.0 | 0.00 | 0.10 | 0.00 | 90 | 1008.0 |
| 20260830103840 | 12 | 357 | 0.0 | 0.0 | 0.00 | 0.10 | 0.00 | 89 | 1008.1 |
| 20260830102807 | 12 | 353 | 0.0 | 0.0 | 0.00 | 0.10 | 0.00 | 89 | 1007.7 |
| 20260830101816 | 12 | 352 | 0.0 | 0.0 | 0.00 | 0.10 | 0.00 | 89 | 1007.5 |
| 20260830100839 | 12 | 353 | 0.0 | 1.6 | 0.00 | 0.10 | 0.00 | 90 | 1007.5 |
| 20260830095806 | 12 | 359 | 0.0 | 0.0 | 0.00 | 0.10 | 0.00 | 90 | 1007.4 |
| 20260830094826 | 12 | 357 | 0.0 | 0.0 | 0.00 | 0.10 | 0.00 | 89 | 1007.3 |
| 20260830091557 | 12 | 355 | 0.0 | 0.0 | 0.00 | 0.10 | 0.00 | 89 | 1006.8 |
| 20260830084306 | 12 | 354 | 0.0 | 0.0 | 0.00 | 0.10 | 0.00 | 89 | 1006.3 |
| 20260830082112 | 12 | 1 | 0.0 | 0.0 | 0.00 | 0.10 | 0.00 | 89 | 1006.2 |